Location: Gesvres
(49.0440°N, 2.8518°E)
Time: 03:06:27
(UTC+00:00)

Tiangong - Visible Passes

Search period start: 10 June 2023 00:00
Search period end: 20 June 2023 00:00
Orbit: 386 x 390 km, 41.5° (Epoch: 09 June)

Date Brightness Start Highest point End Pass type
(mag) Time Alt. Az. Time Alt. Az. Time Alt. Az.
10 Jun -0.7 01:47:53 21° S 01:47:53 21° S 01:50:09 10° SE visible
11 Jun -0.5 02:24:24 16° SW 02:25:29 18° S 02:27:46 10° SE visible
12 Jun 0.2 01:28:53 13° SE 01:28:53 13° SE 01:29:25 10° SE visible
12 Jun 0.0 03:02:11 10° SW 03:03:10 11° SSW 03:04:09 10° S visible
13 Jun 0.2 02:06:11 11° SSE 02:06:11 11° SSE 02:06:32 10° SSE visible
15 Jun 0.1 21:30:40 10° SSW 21:31:16 12° S 21:31:16 12° S visible
16 Jun 0.0 22:07:39 10° SW 22:08:23 14° SW 22:08:23 14° SW visible
17 Jun -0.5 21:09:04 10° SW 21:11:21 18° S 21:12:40 15° SE visible
18 Jun -0.7 21:46:22 10° SW 21:48:51 21° S 21:48:51 21° S visible
19 Jun -0.6 20:47:34 10° SW 20:50:01 20° S 20:52:28 10° SE visible
19 Jun 0.2 22:24:08 10° SW 22:24:49 13° SW 22:24:49 13° SW visible
